Little Rock AFB, AR

4:11 AM CST on December 18, 2017 (GMT -0600)
Little Rock Air Force Base

Weather History for KLRF - February, 2013

Change the Weather History Date:

Friday, February 15, 2013

  Actual Average Record
Temperature  
Mean Temperature 44 °F -  
Max Temperature 51 °F 55 °F 56 °F (2017)
Min Temperature 36 °F 36 °F 20 °F (2014)
Degree Days  
Heating Degree Days 20    
Moisture  
Dew Point 27 °F    
Average Humidity 50    
Maximum Humidity 82    
Minimum Humidity 34    
Precipitation  
Precipitation 0.01 in - - ()
Sea Level Pressure  
Sea Level Pressure 30.23 in    
Wind  
Wind Speed 7 mph (NW)    
Max Wind Speed 15 mph    
Max Gust Speed 21 mph    
Visibility 10 miles    
Events Rain    
Averages and records for this station are not official NWS values.
T = Trace of Precipitation, MM = Missing Value Source: NWS Daily Summary

Daily Weather History Graph

Daily Weather History Graph

Search for Another Location

Airport or City:

Trip Planner

Search our weather history database for the weather conditions in past years. The results will help you decide how hot, cold, wet, or windy it might be!

Date:

Astronomy

Feb. 15, 2013 Rise Set
Actual Time 6:54 AM CST 5:51 PM CST
Civil Twilight 6:28 AM CST 6:17 PM CST
Nautical Twilight 5:58 AM CST 6:47 PM CST
Astronomical Twilight 5:29 AM CST 7:16 PM CST
Moon 9:46 AM CST (2/15) 11:36 PM CST (2/15)
Length of Visible Light 11h 49m
Length of Day
10h 57m
Waxing Crescent, 30% of the Moon is Illuminated
Feb 15
Waxing Crescent
Feb 17
First Quarter
Feb 25
Full
Mar 4
Last Quarter
Mar 11
New

Hourly Weather History & Observations

Time (CST) Temp. Windchill Dew Point Humidity Pressure Visibility Wind Dir Wind Speed Gust Speed Precip Events Conditions
12:58 AM 40.8 °F 38.8 °F 33.4 °F 75% 30.11 in 10.0 mi WSW 3.5 mph - N/A   Scattered Clouds
1:58 AM 46.8 °F - 32.7 °F 58% 30.14 in 10.0 mi WNW 4.6 mph - N/A   Mostly Cloudy
2:58 AM 48.6 °F - 32.0 °F 53% 30.16 in 10.0 mi NNW 4.6 mph - N/A   Scattered Clouds
3:58 AM 48.2 °F - 31.3 °F 52% 30.17 in 10.0 mi Variable 3.5 mph - N/A   Mostly Cloudy
4:58 AM 47.5 °F - 31.8 °F 55% 30.19 in 10.0 mi NNW 9.2 mph - N/A   Scattered Clouds
5:04 AM 48.2 °F - 32.0 °F 54% 30.18 in 10.0 mi North 6.9 mph - N/A Rain Light Rain
5:54 AM 44.6 °F 43.1 °F 37.4 °F 76% 30.19 in 10.0 mi NW 3.5 mph - N/A   Partly Cloudy
5:58 AM 43.9 °F 42.3 °F 37.4 °F 78% 30.21 in 10.0 mi NW 3.5 mph - 0.01 in   Partly Cloudy
6:58 AM 43.0 °F - 37.9 °F 82% 30.22 in 10.0 mi West 2.3 mph - N/A   Mostly Cloudy
7:58 AM 44.2 °F - 38.3 °F 80% 30.25 in 10.0 mi WNW 2.3 mph - N/A   Clear
8:58 AM 46.2 °F 39.8 °F 30.2 °F 54% 30.25 in 10.0 mi NNW 15.0 mph 20.7 mph N/A   Clear
9:58 AM 47.8 °F - 29.3 °F 49% 30.26 in 10.0 mi NW 9.2 mph - N/A   Clear
10:52 AM 50.0 °F - 26.6 °F 40% 30.25 in 10.0 mi North 12.7 mph 19.6 mph N/A   Clear
10:58 AM 48.9 °F - 27.5 °F 43% 30.27 in 10.0 mi NNW 9.2 mph 19.6 mph N/A   Clear
11:26 AM 50.0 °F - 26.6 °F 40% 30.25 in 10.0 mi NNW 11.5 mph 19.6 mph N/A   Clear
11:58 AM 50.2 °F - 26.2 °F 39% 30.26 in 10.0 mi NNW 12.7 mph 19.6 mph N/A   Clear
12:58 PM 50.9 °F - 25.5 °F 37% 30.25 in 10.0 mi NNW 13.8 mph 20.7 mph N/A   Clear
1:35 PM 51.8 °F - 24.8 °F 35% 30.21 in 10.0 mi North 12.7 mph 17.3 mph N/A   Partly Cloudy
1:58 PM 51.4 °F - 23.5 °F 34% 30.22 in 10.0 mi NW 8.1 mph 18.4 mph N/A   Partly Cloudy
2:58 PM 50.0 °F - 24.6 °F 37% 30.22 in 10.0 mi NNW 12.7 mph 18.4 mph N/A   Clear
3:58 PM 48.2 °F - 26.1 °F 42% 30.23 in 10.0 mi NW 10.4 mph - N/A   Clear
4:58 PM 45.9 °F 41.7 °F 23.4 °F 41% 30.24 in 10.0 mi NNW 8.1 mph - N/A   Clear
5:58 PM 44.2 °F 41.0 °F 22.6 °F 42% 30.25 in 10.0 mi NW 5.8 mph - N/A   Clear
6:58 PM 42.6 °F 40.9 °F 22.1 °F 44% 30.27 in 10.0 mi NW 3.5 mph - N/A   Clear
7:58 PM 40.8 °F 36.9 °F 21.6 °F 46% 30.27 in 10.0 mi NNW 5.8 mph - N/A   Partly Cloudy
8:58 PM 40.5 °F 34.6 °F 19.0 °F 42% 30.29 in 10.0 mi NNW 9.2 mph - N/A   Clear
9:58 PM 39.7 °F 35.6 °F 16.9 °F 40% 30.30 in 10.0 mi NW 5.8 mph - N/A   Clear
10:58 PM 38.1 °F 32.9 °F 15.8 °F 40% 30.31 in 10.0 mi NNW 6.9 mph - N/A   Partly Cloudy
11:58 PM 36.5 °F 31.8 °F 15.1 °F 42% 30.30 in 10.0 mi WNW 5.8 mph - N/A   Clear